Stations météo

Publicité
Cap Corse, France (7785): Température de l'air & dewpoint: 12.09.2018 17:00:00 - 18.09.2018 17:00:00 (CEST)Cap Corse, France (7785): Vitesse du vent & gusts: 12.09.2018 17:00:00 - 18.09.2018 17:00:00 (CEST)Cap Corse, France (7785): Direction du vent: 12.09.2018 17:00:00 - 18.09.2018 17:00:00 (CEST)Cap Corse, France (7785): reduced air pressure: 12.09.2018 17:00:00 - 18.09.2018 17:00:00 (CEST)Cap Corse, France (7785): visibility: 12.09.2018 17:00:00 - 18.09.2018 17:00:00 (CEST)Cap Corse, France (7785): Quantités de précipitations: 12.09.2018 17:00:00 - 18.09.2018 17:00:00 (CEST)
Date & Time tt [°C] td [°C] ff [km/h] ff [knt] fx [km/h] fx [knt] dd ppp [hPa] vv [km] rr [mm]
18.09.2018 17:00:00 28,1 18,8 8 4 34 18 W 1017,3 15 0,0
18.09.2018 16:00:00 28,2 19,4 11 6 36 20 SSE 1017,4 - 0,0
18.09.2018 15:00:00 27,9 18,6 22 12 44 24 SE 1017,8 - 0,0
18.09.2018 14:00:00 27,0 19,4 29 16 45 24 ESE 1018,2 12 0,0
18.09.2018 13:00:00 27,1 18,9 30 16 49 26 ESE 1018,5 - 0,0
18.09.2018 12:00:00 27,6 17,7 18 10 43 23 SE 1019,1 - 0,0
18.09.2018 11:00:00 26,4 18,3 25 14 46 25 ESE 1019,0 15 0,0
18.09.2018 10:00:00 25,4 18,6 24 13 37 20 ESE 1018,9 - 0,0
18.09.2018 09:00:00 24,2 18,4 15 8 31 17 SE 1019,0 - 0,0
18.09.2018 08:00:00 22,2 18,4 19 11 32 17 ESE 1019,0 12 0,0
18.09.2018 07:00:00 21,8 18,4 24 13 37 20 SE 1018,7 - 0,0
18.09.2018 06:00:00 21,7 17,9 21 11 30 16 SE 1018,5 - 0,0
18.09.2018 05:00:00 22,0 18,0 22 12 30 16 SE 1018,5 12 0,0
18.09.2018 04:00:00 21,9 17,5 17 9 24 13 SE 1018,7 - 0,0
18.09.2018 03:00:00 21,7 16,2 7 4 28 15 S 1018,8 - 0,0
18.09.2018 02:00:00 23,2 16,0 24 13 42 23 SSE 1018,8 - 0,0
18.09.2018 01:00:00 22,5 17,0 28 15 39 21 SE 1019,0 - 0,0
18.09.2018 00:00:00 22,1 16,4 19 10 28 15 SE 1019,2 - 0,0
17.09.2018 23:00:00 23,0 16,1 18 10 26 14 SSE 1019,3 - 0,0
17.09.2018 22:00:00 22,2 16,9 3 2 11 6 E 1019,5 - 0,0
17.09.2018 21:00:00 22,4 16,9 0 0 31 17 N 1019,2 - 0,0
17.09.2018 20:00:00 22,8 17,7 19 11 35 19 SE 1019,1 - 0,0
17.09.2018 19:00:00 23,8 19,1 12 7 27 14 ESE 1019,0 - 0,0
17.09.2018 18:00:00 24,9 19,9 4 2 16 9 E 1018,8 - 0,0
17.09.2018 17:00:00 24,8 19,8 11 6 17 9 W 1019,1 - 0,0
17.09.2018 16:00:00 24,6 19,9 9 5 28 15 SE 1020,0 - 0,0
17.09.2018 15:00:00 26,2 18,8 19 10 41 22 SE 1020,1 - 0,0
17.09.2018 14:00:00 27,1 20,0 21 11 42 23 E 1020,5 15 0,0
17.09.2018 13:00:00 25,8 19,2 18 10 39 21 E 1020,9 - 0,0
17.09.2018 12:00:00 25,9 18,8 16 9 34 18 ESE 1021,3 - 0,0
17.09.2018 11:00:00 24,7 19,1 22 12 37 20 ESE 1021,3 15 0,0
17.09.2018 10:00:00 24,6 18,3 22 12 38 20 ESE 1021,1 - 0,0
17.09.2018 09:00:00 23,6 17,6 21 12 36 20 ESE 1020,8 - 0,0
17.09.2018 08:00:00 22,1 16,1 32 17 43 23 SE 1021,0 8 0,0
17.09.2018 07:00:00 21,4 16,4 31 17 46 25 SE 1020,6 - 0,0
17.09.2018 06:00:00 20,7 16,9 33 18 42 23 SE 1020,5 - 0,0
17.09.2018 05:00:00 20,1 17,1 21 12 30 16 ESE 1021,1 8 0,0
17.09.2018 04:00:00 21,0 17,6 10 5 23 12 SW 1021,4 - 0,0
17.09.2018 03:00:00 22,2 19,7 7 4 20 11 SW 1021,5 - 0,0
17.09.2018 02:00:00 22,6 19,8 6 4 9 5 WSW 1021,4 - 0,0
17.09.2018 01:00:00 22,9 19,3 3 2 8 4 WNW 1021,6 - 0,0
17.09.2018 00:00:00 23,4 15,2 4 2 11 6 NE 1021,6 - 0,0
16.09.2018 23:00:00 22,8 14,4 0 0 5 3 N 1021,8 - 0,0
16.09.2018 22:00:00 23,2 15,8 4 2 9 5 SW 1021,8 - 0,0
16.09.2018 21:00:00 22,9 14,7 2 1 7 4 ESE 1021,6 - 0,0
16.09.2018 20:00:00 23,1 15,7 2 1 12 6 NE 1021,4 15 0,0
16.09.2018 19:00:00 25,3 18,2 6 4 20 11 E 1021,1 - 0,0
16.09.2018 18:00:00 26,1 19,7 9 5 18 10 ESE 1021,2 - 0,0
16.09.2018 17:00:00 25,5 20,1 8 4 13 7 E 1021,4 18 0,0
16.09.2018 16:00:00 26,2 20,1 8 4 13 7 NNE 1021,4 - 0,0
16.09.2018 15:00:00 25,6 19,7 7 4 13 7 NE 1021,7 - 0,0
16.09.2018 14:00:00 26,4 19,3 7 4 14 8 WNW 1022,0 18 0,0
16.09.2018 13:00:00 26,8 20,4 10 6 18 10 W 1022,0 - 0,0
16.09.2018 12:00:00 25,8 19,7 14 8 26 14 W 1022,2 - 0,0
16.09.2018 11:00:00 26,4 18,5 11 6 24 13 W 1022,2 18 0,0
16.09.2018 10:00:00 26,1 18,5 5 3 30 16 WNW 1021,9 - 0,0
16.09.2018 09:00:00 24,4 19,5 17 9 31 17 SE 1021,5 - 0,0
16.09.2018 08:00:00 23,1 18,8 22 12 36 19 ESE 1021,2 18 0,0
16.09.2018 07:00:00 22,1 18,3 24 13 32 18 SE 1021,0 - 0,0
16.09.2018 06:00:00 21,4 17,4 14 8 21 12 SE 1020,9 - 0,0
16.09.2018 05:00:00 21,2 17,4 14 7 18 10 E 1020,9 18 0,0
16.09.2018 04:00:00 21,4 16,6 9 5 13 7 E 1021,2 - 0,0
16.09.2018 03:00:00 21,4 16,4 7 4 10 5 E 1021,4 - 0,0
16.09.2018 02:00:00 21,5 15,6 6 3 16 9 E 1021,7 - 0,0
16.09.2018 01:00:00 21,9 18,3 12 7 23 12 SW 1021,6 - 0,0
16.09.2018 00:00:00 22,9 18,9 17 9 27 14 WSW 1021,6 - 0,0
15.09.2018 23:00:00 23,0 19,2 16 9 31 17 WSW 1021,4 - 0,0
15.09.2018 22:00:00 23,3 19,2 16 8 35 19 WSW 1021,0 - 0,0
15.09.2018 21:00:00 23,6 19,3 15 8 39 21 WSW 1020,8 - 0,0
15.09.2018 20:00:00 24,1 19,0 22 12 37 20 WSW 1020,3 - 0,0
15.09.2018 19:00:00 25,1 18,5 21 11 30 16 WSW 1020,0 - 0,0
15.09.2018 18:00:00 27,0 18,3 20 11 32 17 W 1019,5 - 0,0
15.09.2018 17:00:00 27,7 17,2 17 9 29 15 W 1019,3 18 0,0
15.09.2018 16:00:00 28,4 16,0 11 6 34 18 W 1019,5 - 0,0
15.09.2018 15:00:00 28,8 18,0 20 11 33 18 ESE 1019,5 - 0,0
15.09.2018 14:00:00 28,6 16,2 11 6 27 15 NE 1019,8 18 0,0
15.09.2018 13:00:00 29,5 14,9 8 4 16 8 WNW 1019,8 - 0,0
15.09.2018 12:00:00 29,2 16,4 6 3 27 14 SW 1019,7 - 0,0
15.09.2018 11:00:00 28,5 16,1 10 5 25 14 ESE 1019,3 18 0,0
15.09.2018 10:00:00 26,5 19,6 6 3 11 6 NW 1019,1 - 0,0
15.09.2018 09:00:00 26,2 18,6 5 3 9 5 N 1018,8 - 0,0
15.09.2018 08:00:00 23,0 17,5 5 3 7 4 E 1018,7 - 0,0
15.09.2018 07:00:00 21,6 16,3 3 2 16 9 WNW 1018,2 - 0,0
15.09.2018 06:00:00 21,4 16,8 6 4 12 7 W 1017,7 - 0,0
15.09.2018 05:00:00 21,0 17,8 2 1 5 3 ESE 1017,5 15 0,0
15.09.2018 04:00:00 21,6 18,8 0 0 13 7 N 1017,4 - 0,0
15.09.2018 03:00:00 22,6 19,6 10 6 49 27 SW 1017,5 - 0,0
15.09.2018 02:00:00 23,5 20,4 24 13 50 27 W 1017,5 - 0,0
15.09.2018 01:00:00 23,3 20,1 23 12 42 23 W 1017,4 - 0,0
15.09.2018 00:00:00 23,5 20,4 22 12 49 26 WSW 1017,1 - 0,0
14.09.2018 23:00:00 23,7 19,4 26 14 51 27 W 1017,1 - 0,0
14.09.2018 22:00:00 23,9 20,4 28 15 44 24 W 1017,1 - 0,0
14.09.2018 21:00:00 23,8 20,1 30 16 41 22 W 1016,8 - 0,0
14.09.2018 20:00:00 24,4 19,0 9 5 23 13 W 1016,6 - 0,0
14.09.2018 19:00:00 25,0 19,1 21 11 27 15 W 1016,3 - 0,0
14.09.2018 18:00:00 25,9 18,3 16 9 35 19 E 1015,9 - 0,0
14.09.2018 17:00:00 26,0 18,2 24 13 37 20 E 1015,7 18 0,0
14.09.2018 16:00:00 26,0 19,2 23 12 34 18 E 1015,9 - 0,0
14.09.2018 15:00:00 26,8 17,3 18 10 27 15 E 1016,3 - 0,0
14.09.2018 14:00:00 26,8 19,2 16 9 23 12 E 1016,6 18 0,0
14.09.2018 13:00:00 27,4 17,8 9 5 16 9 ENE 1016,8 - 0,0
14.09.2018 12:00:00 27,3 17,2 8 4 16 8 NW 1016,9 - 0,0
14.09.2018 11:00:00 27,0 15,7 7 4 15 8 W 1016,9 18 0,0
14.09.2018 10:00:00 26,4 16,0 11 6 15 8 W 1016,2 - 0,0
14.09.2018 09:00:00 25,8 15,5 5 3 14 7 SSW 1015,9 - 0,0
14.09.2018 08:00:00 23,7 15,5 11 6 25 13 SW 1015,7 15 0,0
14.09.2018 07:00:00 23,1 14,6 18 10 44 24 WSW 1015,2 - 0,0
14.09.2018 06:00:00 22,8 14,4 21 12 40 22 SW 1014,9 - 0,0
14.09.2018 05:00:00 22,5 15,6 26 14 46 25 SW 1014,9 10 0,0
14.09.2018 04:00:00 22,3 16,8 28 15 37 20 SW 1015,1 - 0,0
14.09.2018 03:00:00 22,3 17,9 21 11 44 24 SW 1015,5 - 0,0
14.09.2018 02:00:00 22,5 18,7 29 16 54 29 SW 1015,5 - 0,0
14.09.2018 01:00:00 22,7 19,3 27 15 49 26 WSW 1015,4 - 0,0
14.09.2018 00:00:00 22,9 19,3 24 13 46 25 WSW 1015,6 - 0,0
13.09.2018 23:00:00 22,8 19,4 25 13 42 23 WSW 1015,7 - 0,0
13.09.2018 22:00:00 22,7 19,7 26 14 36 19 WSW 1015,8 - 0,0
13.09.2018 21:00:00 22,6 19,6 18 10 29 16 WSW 1015,8 - 0,0
13.09.2018 20:00:00 22,7 19,7 16 9 37 20 WSW 1015,5 - 0,0
13.09.2018 19:00:00 23,1 20,1 19 10 46 25 WSW 1015,1 - 0,0
13.09.2018 18:00:00 24,2 19,7 26 14 45 24 WSW 1015,0 - 0,0
13.09.2018 17:00:00 24,1 19,8 26 14 47 25 WSW 1015,1 15 0,0
13.09.2018 16:00:00 24,8 19,6 26 14 44 24 WSW 1015,6 - 0,0
13.09.2018 15:00:00 25,6 20,2 30 16 56 31 W 1016,1 - 0,0
13.09.2018 14:00:00 24,8 19,6 36 20 54 29 W 1015,8 15 0,0
13.09.2018 13:00:00 25,8 19,4 36 20 58 32 W 1016,5 - 0,0
13.09.2018 12:00:00 25,7 19,3 33 18 61 33 WSW 1016,8 - 0,0
13.09.2018 11:00:00 24,9 19,5 40 22 64 35 W 1016,6 - 0,0
13.09.2018 10:00:00 24,9 17,9 34 18 53 29 WSW 1016,3 - 0,0
13.09.2018 09:00:00 24,1 17,1 29 16 55 30 WSW 1016,1 - 0,0
13.09.2018 08:00:00 23,9 15,9 23 13 42 23 WSW 1016,3 15 0,0
13.09.2018 07:00:00 23,3 16,8 29 16 53 29 WSW 1015,9 - 0,0
13.09.2018 06:00:00 22,6 17,3 33 18 65 35 WSW 1016,1 - 0,0
13.09.2018 05:00:00 23,5 16,0 41 22 74 40 SW 1016,2 12 0,0
13.09.2018 04:00:00 23,6 19,9 44 24 75 41 WSW 1017,0 - 0,0
13.09.2018 03:00:00 23,9 19,6 31 17 56 30 WSW 1017,6 - 0,0
13.09.2018 02:00:00 23,8 17,8 27 15 50 27 WSW 1018,0 - 0,0
13.09.2018 01:00:00 24,1 16,9 21 12 38 21 WSW 1018,7 - 0,0
13.09.2018 00:00:00 24,2 16,5 18 10 39 21 WSW 1018,9 - 0,0
12.09.2018 23:00:00 24,4 16,9 21 11 35 19 WSW 1019,6 - 0,0
12.09.2018 22:00:00 24,8 14,0 20 11 38 21 WSW 1019,9 - 0,0
12.09.2018 21:00:00 24,2 19,5 22 12 34 19 WSW 1019,7 - 0,0
12.09.2018 20:00:00 24,2 18,8 17 9 30 16 W 1020,2 12 0,0
12.09.2018 19:00:00 25,2 15,8 16 9 27 15 W 1020,6 - 0,0
12.09.2018 18:00:00 25,1 19,5 10 6 13 7 W 1021,0 - 0,0
12.09.2018 17:00:00 26,3 19,9 6 4 13 7 W 1021,4 16 0,0

tt = Température de l'air
td = dewpoint
ff = Vitesse du vent
fx = gusts
dd = Direction du vent
ppp = reduced air pressure
vv = visibility
rr = Quantités de précipitations

stations d'obs. à proximité